Time,TemperatureF,DewpointF,PressureIn,WindDirection,WindDirectionDegrees,WindSpeedMPH,WindSpeedGustMPH,Humidity,HourlyPrecipIn,Conditions,Clouds,dailyrainin,SolarRadiationWatts/m^2,SoftwareType,DateUTC
2014-08-21 00:22:00,61.0,49.0,-100.00,North,2,5.0,12.0,64,0.00,,,0.18,0.000000,,2014-08-21 06:22:00,
2014-08-21 00:53:00,61.0,49.0,-100.00,North,2,5.0,12.0,64,0.00,,,0.18,0.000000,,2014-08-21 06:53:00,
2014-08-21 01:32:00,59.0,49.0,-100.00,NNE,25,1.0,18.0,70,0.00,,,0.18,0.000000,,2014-08-21 07:32:00,
2014-08-21 01:43:00,59.0,49.0,-100.00,NNE,25,1.0,18.0,70,0.00,,,0.18,0.000000,,2014-08-21 07:43:00,
2014-08-21 01:53:00,59.0,49.0,-100.00,NNE,25,1.0,18.0,70,0.00,,,0.18,0.000000,,2014-08-21 07:53:00,
2014-08-21 02:02:00,59.0,49.0,-100.00,NNE,25,1.0,18.0,70,0.00,,,0.18,0.000000,,2014-08-21 08:02:00,
2014-08-21 02:03:00,58.0,49.0,-100.00,SE,129,2.0,8.0,72,0.00,,,0.18,0.000000,,2014-08-21 08:03:00,
2014-08-21 02:23:00,58.0,49.0,-100.00,SE,129,2.0,8.0,72,0.00,,,0.18,0.000000,,2014-08-21 08:23:00,
2014-08-21 02:32:00,58.0,49.0,-100.00,SE,129,2.0,8.0,72,0.00,,,0.18,0.000000,,2014-08-21 08:32:00,
2014-08-21 02:42:00,58.0,49.0,-100.00,SE,129,2.0,8.0,72,0.00,,,0.18,0.000000,,2014-08-21 08:42:00,
2014-08-21 02:52:00,58.0,49.0,-100.00,SE,129,2.0,8.0,72,0.00,,,0.18,0.000000,,2014-08-21 08:52:00,
2014-08-21 03:03:00,55.0,47.0,-100.00,NE,47,8.0,17.0,74,0.00,,,0.18,0.000000,,2014-08-21 09:03:00,
2014-08-21 03:22:00,55.0,47.0,-100.00,NE,47,8.0,17.0,74,0.00,,,0.18,0.000000,,2014-08-21 09:22:00,
2014-08-21 03:34:00,55.0,47.0,-100.00,NE,47,8.0,17.0,74,0.00,,,0.18,0.000000,,2014-08-21 09:34:00,
2014-08-21 04:03:00,53.0,48.0,-100.00,South,188,5.0,17.0,82,0.00,,,0.18,0.000000,,2014-08-21 10:03:00,
2014-08-21 04:24:00,53.0,48.0,-100.00,South,188,5.0,17.0,82,0.00,,,0.18,0.000000,,2014-08-21 10:24:00,
2014-08-21 04:33:00,53.0,48.0,-100.00,South,188,5.0,17.0,82,0.00,,,0.18,0.000000,,2014-08-21 10:33:00,
2014-08-21 04:43:00,53.0,48.0,-100.00,South,188,5.0,17.0,82,0.00,,,0.18,0.000000,,2014-08-21 10:43:00,
2014-08-21 04:53:00,53.0,48.0,-100.00,South,188,5.0,17.0,82,0.00,,,0.18,0.000000,,2014-08-21 10:53:00,
2014-08-21 05:43:00,54.0,48.0,-100.00,SW,232,4.0,13.0,79,0.00,,,0.18,0.000000,,2014-08-21 11:43:00,
2014-08-21 05:53:00,54.0,48.0,-100.00,SW,232,4.0,13.0,79,0.00,,,0.18,0.000000,,2014-08-21 11:53:00,
2014-08-21 06:22:00,54.0,48.0,-100.00,NNW,331,1.0,9.0,80,0.00,,,0.18,0.000000,,2014-08-21 12:22:00,
2014-08-21 06:42:00,54.0,48.0,-100.00,NNW,331,1.0,9.0,80,0.00,,,0.18,0.000000,,2014-08-21 12:42:00,
2014-08-21 06:52:00,54.0,48.0,-100.00,NNW,331,1.0,9.0,80,0.00,,,0.18,0.000000,,2014-08-21 12:52:00,
2014-08-21 07:02:00,54.0,48.0,-100.00,NNW,331,1.0,9.0,80,0.00,,,0.18,0.000000,,2014-08-21 13:02:00,
2014-08-21 07:42:00,53.0,50.0,-100.00,ENE,69,2.0,7.0,88,0.00,,,0.18,7.000000,,2014-08-21 13:42:00,
2014-08-21 07:53:00,53.0,50.0,-100.00,ENE,69,2.0,7.0,88,0.00,,,0.18,7.000000,,2014-08-21 13:53:00,
2014-08-21 08:23:00,54.0,50.0,-100.00,SSE,153,2.0,7.0,85,0.00,,,0.18,61.000000,,2014-08-21 14:23:00,
2014-08-21 08:32:00,54.0,50.0,-100.00,SSE,153,2.0,7.0,85,0.00,,,0.18,61.000000,,2014-08-21 14:32:00,
2014-08-21 08:42:00,54.0,50.0,-100.00,SSE,153,2.0,7.0,85,0.00,,,0.18,61.000000,,2014-08-21 14:42:00,
2014-08-21 08:52:00,54.0,50.0,-100.00,SSE,153,2.0,7.0,85,0.00,,,0.18,61.000000,,2014-08-21 14:52:00,
2014-08-21 09:02:00,54.0,50.0,-100.00,SSE,153,2.0,7.0,85,0.00,,,0.18,61.000000,,2014-08-21 15:02:00,
2014-08-21 09:03:00,56.0,50.0,-100.00,NE,42,4.0,7.0,79,0.00,,,0.18,144.000000,,2014-08-21 15:03:00,
2014-08-21 09:34:00,56.0,50.0,-100.00,NE,42,4.0,7.0,79,0.00,,,0.18,144.000000,,2014-08-21 15:34:00,
2014-08-21 09:54:00,56.0,50.0,-100.00,NE,42,4.0,7.0,79,0.00,,,0.18,144.000000,,2014-08-21 15:54:00,
2014-08-21 10:03:00,57.0,51.0,-100.00,NNE,13,7.0,11.0,79,0.00,,,0.18,138.000000,,2014-08-21 16:03:00,
2014-08-21 10:24:00,57.0,51.0,-100.00,NNE,13,7.0,11.0,79,0.00,,,0.18,138.000000,,2014-08-21 16:24:00,
2014-08-21 10:43:00,57.0,51.0,-100.00,NNE,13,7.0,11.0,79,0.00,,,0.18,138.000000,,2014-08-21 16:43:00,
2014-08-21 11:24:00,58.0,49.0,-100.00,North,1,9.0,15.0,72,0.00,,,0.18,173.000000,,2014-08-21 17:24:00,
2014-08-21 11:34:00,58.0,49.0,-100.00,North,1,9.0,15.0,72,0.00,,,0.18,173.000000,,2014-08-21 17:34:00,
2014-08-21 11:54:00,58.0,49.0,-100.00,North,1,9.0,15.0,72,0.00,,,0.18,173.000000,,2014-08-21 17:54:00,
2014-08-21 12:32:00,57.0,53.0,-100.00,North,349,5.0,14.0,88,0.02,,,0.20,124.000000,,2014-08-21 18:32:00,
2014-08-21 12:43:00,57.0,53.0,-100.00,North,349,5.0,14.0,88,0.02,,,0.20,124.000000,,2014-08-21 18:43:00,
2014-08-21 12:52:00,57.0,53.0,-100.00,North,349,5.0,14.0,88,0.02,,,0.20,124.000000,,2014-08-21 18:52:00,
2014-08-21 13:02:00,57.0,53.0,-100.00,North,349,5.0,14.0,88,0.02,,,0.20,124.000000,,2014-08-21 19:02:00,
2014-08-21 13:03:00,59.0,51.0,-100.00,North,11,2.0,6.0,75,0.01,,,0.21,237.000000,,2014-08-21 19:03:00,
2014-08-21 13:23:00,59.0,51.0,-100.00,North,11,2.0,6.0,75,0.01,,,0.21,237.000000,,2014-08-21 19:23:00,
2014-08-21 13:32:00,59.0,51.0,-100.00,North,11,2.0,6.0,75,0.01,,,0.21,237.000000,,2014-08-21 19:32:00,
2014-08-21 13:42:00,59.0,51.0,-100.00,North,11,2.0,6.0,75,0.01,,,0.21,237.000000,,2014-08-21 19:42:00,
2014-08-21 13:52:00,59.0,51.0,-100.00,North,11,2.0,6.0,75,0.01,,,0.21,237.000000,,2014-08-21 19:52:00,
2014-08-21 14:43:00,61.0,53.0,-100.00,SSE,166,3.0,7.0,75,0.00,,,0.14,269.000000,,2014-08-21 20:43:00,
2014-08-21 14:53:00,61.0,53.0,-100.00,SSE,166,3.0,7.0,75,0.00,,,0.14,269.000000,,2014-08-21 20:53:00,
2014-08-21 15:02:00,61.0,53.0,-100.00,SSE,166,3.0,7.0,75,0.00,,,0.14,269.000000,,2014-08-21 21:02:00,
2014-08-21 15:03:00,64.0,51.0,-100.00,ESE,122,4.0,8.0,62,0.00,,,0.10,584.000000,,2014-08-21 21:03:00,
2014-08-21 15:23:00,64.0,51.0,-100.00,ESE,122,4.0,8.0,62,0.00,,,0.10,584.000000,,2014-08-21 21:23:00,
2014-08-21 15:33:00,64.0,51.0,-100.00,ESE,122,4.0,8.0,62,0.00,,,0.10,584.000000,,2014-08-21 21:33:00,
2014-08-21 15:42:00,64.0,51.0,-100.00,ESE,122,4.0,8.0,62,0.00,,,0.10,584.000000,,2014-08-21 21:42:00,
2014-08-21 16:23:00,64.0,47.0,-100.00,NE,40,2.0,10.0,55,0.00,,,0.03,446.000000,,2014-08-21 22:23:00,
2014-08-21 16:33:00,64.0,47.0,-100.00,NE,40,2.0,10.0,55,0.00,,,0.03,446.000000,,2014-08-21 22:33:00,
2014-08-21 16:53:00,64.0,47.0,-100.00,NE,40,2.0,10.0,55,0.00,,,0.03,446.000000,,2014-08-21 22:53:00,
2014-08-21 17:02:00,64.0,47.0,-100.00,NE,40,2.0,10.0,55,0.00,,,0.03,446.000000,,2014-08-21 23:02:00,